Погода в Рехобот-Бич

США     38°42′59″N   75°04′35″W
темп.,
°C
ветер,
м/с
пор.,
м/с
влажн.,
%
обл.,
%
осадки,
мм/ч
давл.,
гПа
погр.,
м
20 апреля, вт
вт2023:00+11зюз22820 0.0 101387
02:00+11з45800 0.0 1014144
05:00+10зюз57820 0.0 1014162
08:00+11зюз58812 0.0 1016200
11:00+15зюз44701 0.0 101726
14:00+15ююв44730 0.0 101639
17:00+15ю79710 0.0 1015110
20:00+13ю913810 0.0 1016198
21 апреля, ср
ср2123:00+13ю1117795 0.0 1015328
02:00+14ююз1017785 0.0 1014364
05:00+13ююз91681100 0.0 1012363
08:00+14ю81482100 0.0 1010286
11:00+14ю1014815 0.1 1008242
14:00+16ююз10137475 1.4 1004140
17:00+10сз12186945 2.6 10071191
20:00+10сз1416585 2.6 10091746
22 апреля, чт
чт2223:00+7зсз1315573 0.0 10121561
02:00+6зсз1214625 0.0 10141401
05:00+4зсз1318580 0.0 10151480
08:00+5зсз1216685 0.0 10171535
11:00+7зсз13164999 0.0 10172357
14:00+9зсз131544100 0.0 10162774
17:00+11зсз12164393 0.0 10163120
20:00+11зсз914495 0.0 10172376
23 апреля, пт
пт2323:00+9зсз812560 0.0 10191301
02:00+8зсз913610 0.0 10201095
05:00+7з813670 0.0 1019657
08:00+7з1014660 0.0 1020672
11:00+10з1011520 0.0 1020980
14:00+13зсз911515 0.0 10191244
17:00+14з810515 0.0 1018261
20:00+13зюз69612 0.0 1019155
24 апреля, сб
сб2423:00+12зюз79630 0.0 1020208
02:00+11зюз69645 0.0 1020204
05:00+10зюз56672 0.0 1020162
08:00+10зюз33625 0.0 1021148
11:00+13ююз2354100 0.0 1021275
14:00+15юв4464100 0.0 1019143
17:00+14ю81070100 0.0 1017186
20:00+13ю7976100 0.0 1016182